SL-8 DEB, 21943

Orbit data source: Space-Track

SL-8 DEB, 21943 is space debris in LEO originally from a launch on Tue, 12 Feb 1991 UTC launched from the Plesetsk Missile And Space Complex (PKMTR). Debris objects in space refer to the collection of defunct objects orbiting the Earth. Examples of debris include non-operational satellites, rocket bodies, and fragments generated from explosions, collisions, or faulty payload assembly.

Loading next visibility...
Identifier
21943, 1991-009CE
Orbit
LEO
Country
Flag of CISCIS
Related business
Manufacturer
Unknown
Mission
Spacecraft
Bus & Motor
Unknown
Mass
Unknown
Launch date (UTC)
1991-02-12 (35 years ago)
Launch vehicle
Unknown
Launch site
Plesetsk Missile And Space Complex (PKMTR)
Object type
Payload
Rocket body
Debris
Shape & HBR
Unknown shape, 0.1 m
Radar Cross Section
Medium (>0.1 m² and <1 m²)

Expand to show TLE details & history
Last TLE update: 2 days ago

TLE from 2 days ago
0 SL-8 DEB
1 21943U 91009CE  26171.29260677  .00000022  00000-0  34676-3 0  9997
2 21943  73.9531 124.0256 0136578  67.7555  82.5334 12.19266353570391
Epoch: 2026-06-20T07:01Z
TLE epoch observation values (Epoch: 2026-06-20T07:01:21.224Z)
Latitude
27.00786°
Longitude
-78.21126°
Altitude
1,585.828 km
Speed
7.084 km/s
True Right ascension
19h 42m 32s
True Declination
26° 53' 00"
Sunlit
Object was in daylight at epoch
Visualization orbit readout
Latitude
Unknown
Longitude
Unknown
Altitude
Unknown
Speed
Unknown
Apparent Right ascension
Unknown
Apparent Declination
Unknown
Sunlit
N/A
Visualization observer readout
Local Sidereal Time
02:18:48
Azimuth
Unknown
Elevation
Unknown
Doppler factor
Unknown
Orbital elements
Apogee altitude
1,702.491 km
Perigee altitude
1,484.738 km
Semi-major axis
7,971.752 km
Eccentricity
0.01366
Inclination
73.9531°
RAAN
124.0256°
Arg. of periapsis
67.7555°
True anomaly
84.08846°
Mean anomaly
82.5334°
Eccentric anomaly
83.31061°
Mean motion
3.04939 °/min
Orbital period
118.06 mins
BSTAR
0.00034676
Loading maneuver chart data...
Computing Atmospheric mass density...
Loading historical data...
Loading historical data...
Loading historical data...
Loading historical data...
Loading historical data...
Loading historical data...
Loading historical data...

Documentation

Showing up to 5 results
|